TimeCST,TemperatureF,Dew PointF,Humidity,Sea Level PressureIn,VisibilityMPH,Wind Direction,Wind SpeedMPH,Gust SpeedMPH,PrecipitationIn,Events,Conditions,WindDirDegrees,DateUTC
12:53 AM,46.9,44.1,90,30.14,10.0,Calm,Calm,-,N/A,,Clear,0,2013-02-12 06:53:00
1:53 AM,46.0,43.0,89,30.15,10.0,Calm,Calm,-,N/A,,Clear,0,2013-02-12 07:53:00
2:53 AM,46.0,42.1,86,30.11,10.0,NNE,6.9,-,N/A,,Clear,20,2013-02-12 08:53:00
3:53 AM,43.0,39.0,86,30.07,10.0,NE,6.9,-,N/A,,Clear,50,2013-02-12 09:53:00
4:53 AM,45.0,37.0,74,30.05,10.0,ESE,4.6,-,N/A,,Clear,110,2013-02-12 10:53:00
5:53 AM,41.0,37.0,86,30.07,10.0,Calm,Calm,-,N/A,,Clear,0,2013-02-12 11:53:00
6:53 AM,42.1,37.9,85,30.07,10.0,NNW,4.6,-,N/A,,Clear,340,2013-02-12 12:53:00
7:53 AM,45.0,37.0,74,30.00,10.0,ENE,10.4,-,N/A,,Clear,60,2013-02-12 13:53:00
8:53 AM,46.0,37.9,73,30.06,10.0,North,6.9,-,N/A,,Mostly Cloudy,10,2013-02-12 14:53:00
9:53 AM,46.0,39.9,79,30.06,8.0,NNE,3.5,-,0.06,Rain,Rain,30,2013-02-12 15:53:00
10:53 AM,45.0,41.0,86,30.09,10.0,North,3.5,-,0.09,Rain,Light Rain,10,2013-02-12 16:53:00
11:53 AM,46.0,42.1,86,30.01,10.0,NNE,13.8,-,0.03,Rain,Light Rain,30,2013-02-12 17:53:00
12:53 PM,45.0,41.0,86,29.97,10.0,NE,12.7,-,0.00,Rain,Light Rain,40,2013-02-12 18:53:00
1:53 PM,45.0,39.9,82,29.94,10.0,NE,11.5,-,0.01,Rain,Light Rain,50,2013-02-12 19:53:00
2:53 PM,46.9,39.0,74,29.90,10.0,ENE,11.5,-,0.01,,Overcast,70,2013-02-12 20:53:00
3:53 PM,46.9,39.0,74,29.88,10.0,NE,8.1,-,0.01,Rain,Light Rain,50,2013-02-12 21:53:00
4:53 PM,46.9,43.0,86,29.88,10.0,North,5.8,-,0.00,Rain,Light Rain,10,2013-02-12 22:53:00
5:53 PM,46.0,42.1,86,29.86,10.0,NE,8.1,-,N/A,,Overcast,50,2013-02-12 23:53:00
6:17 PM,46.4,39.2,76,29.85,10.0,East,13.8,-,N/A,,Overcast,80,2013-02-13 00:17:00
6:53 PM,45.0,39.0,80,29.85,10.0,East,11.5,-,N/A,,Overcast,80,2013-02-13 00:53:00
7:19 PM,46.4,39.2,76,29.86,10.0,East,8.1,-,N/A,,Overcast,80,2013-02-13 01:19:00
7:53 PM,45.0,41.0,86,29.87,9.0,NW,6.9,-,0.00,Rain,Light Rain,320,2013-02-13 01:53:00
8:44 PM,44.6,42.8,93,29.86,5.0,NE,3.5,-,0.01,Rain,Light Rain,50,2013-02-13 02:44:00
8:53 PM,44.1,42.1,93,29.86,6.0,ENE,4.6,-,0.01,Rain,Light Rain,70,2013-02-13 02:53:00
9:09 PM,44.6,42.8,93,29.87,7.0,Calm,Calm,-,0.00,,Overcast,0,2013-02-13 03:09:00
9:16 PM,44.6,42.8,93,29.87,5.0,Calm,Calm,-,0.00,,Overcast,0,2013-02-13 03:16:00
9:53 PM,44.1,43.0,96,29.88,5.0,NW,4.6,-,0.00,,Overcast,320,2013-02-13 03:53:00
10:05 PM,44.6,42.8,93,29.88,8.0,NNE,3.5,-,N/A,,Overcast,20,2013-02-13 04:05:00
10:33 PM,44.6,42.8,93,29.87,3.0,NNW,3.5,-,0.01,Rain,Light Rain,330,2013-02-13 04:33:00
10:53 PM,43.0,43.0,100,29.87,3.0,NW,4.6,-,0.01,Rain,Light Rain,310,2013-02-13 04:53:00
11:18 PM,42.8,42.8,100,29.87,2.5,NW,5.8,-,0.01,Rain,Light Rain,320,2013-02-13 05:18:00
11:35 PM,42.8,42.8,100,29.87,3.0,NW,6.9,-,0.01,Rain,Light Rain,310,2013-02-13 05:35:00
11:53 PM,43.0,43.0,100,29.87,3.0,NW,8.1,-,0.02,Rain,Light Rain,320,2013-02-13 05:53:00